CW4713 Weather Reports


time (UTC)temp
F
wind
direction
speed
knots
gust
knots
rain 1hr
in
rain 24hr
in
rain mn
in
humidity
%
barometer
mb
20260507105804 38 113 0.9 2.6 0.00 0.16 0.00 91 1017.4
20260507105306 38 136 1.7 2.6 0.00 0.16 0.00 91 1017.5
20260507104804 38 93 0.0 1.7 0.00 0.16 0.00 91 1017.4
20260507104304 38 109 0.0 0.0 0.00 0.16 0.00 91 1017.4
20260507103804 38 109 0.0 2.6 0.00 0.16 0.00 91 1017.5
20260507103304 38 158 1.7 2.6 0.00 0.16 0.00 91 1017.4
20260507102803 38 166 2.6 4.3 0.00 0.16 0.00 91 1017.5
20260507102306 38 159 0.9 1.7 0.00 0.16 0.00 91 1017.4
20260507101804 38 178 1.7 4.3 0.00 0.16 0.00 91 1017.4
20260507101304 38 133 1.7 2.6 0.00 0.16 0.00 91 1017.4
20260507100804 38 199 2.6 4.3 0.00 0.16 0.00 91 1017.4
20260507100304 38 191 1.7 2.6 0.00 0.16 0.00 91 1017.4
20260507095805 38 156 0.9 2.6 0.00 0.16 0.00 91 1017.4
20260507095306 38 54 0.9 2.6 0.00 0.16 0.00 91 1017.4
20260507094804 38 150 0.9 2.6 0.00 0.16 0.00 91 1017.5
20260507094304 39 191 2.6 5.2 0.00 0.16 0.00 92 1017.4
20260507093805 39 199 4.3 7.0 0.00 0.16 0.00 92 1017.3
20260507093305 39 202 4.3 6.1 0.00 0.16 0.00 92 1017.3
20260507092804 39 187 1.7 2.6 0.00 0.16 0.00 92 1017.2
20260507092307 39 221 4.3 7.0 0.00 0.16 0.00 92 1017.2
20260507091804 39 225 3.5 7.0 0.00 0.16 0.00 92 1017.2
20260507091304 39 221 4.3 7.0 0.00 0.16 0.00 92 1017.3
20260507090804 39 195 4.3 7.8 0.00 0.16 0.00 92 1017.2
20260507090304 39 198 3.5 6.1 0.00 0.16 0.00 92 1017.2
20260507085804 39 191 2.6 5.2 0.00 0.16 0.00 92 1017.1
20260507085306 39 199 0.9 6.1 0.00 0.16 0.00 92 1017.0
20260507084804 39 164 0.0 2.6 0.00 0.16 0.00 92 1016.9
20260507084304 39 163 0.9 1.7 0.01 0.16 0.00 92 1016.9
20260507083804 39 75 0.0 1.7 0.01 0.16 0.00 92 1016.9
20260507083304 39 175 1.7 1.7 0.01 0.16 0.00 92 1016.9
20260507082804 40 160 0.9 2.6 0.02 0.16 0.00 92 1016.8
20260507082306 40 128 0.0 2.6 0.02 0.16 0.00 92 1016.9
20260507081804 40 170 1.7 2.6 0.02 0.16 0.00 92 1016.8
20260507081304 40 192 1.7 4.3 0.03 0.16 0.00 92 1016.8
20260507080804 40 201 1.7 4.3 0.03 0.16 0.00 92 1016.8
20260507080305 40 194 2.6 6.1 0.03 0.16 0.00 92 1016.8
20260507075804 40 214 2.6 5.2 0.04 0.16 0.16 92 1016.7
20260507075307 40 182 2.6 6.1 0.05 0.16 0.16 92 1016.7
20260507074804 40 215 1.7 5.2 0.05 0.16 0.16 92 1016.6
20260507074304 40 228 2.6 6.1 0.05 0.15 0.15 92 1016.6
20260507073804 40 219 0.9 4.3 0.05 0.15 0.15 92 1016.6
20260507073304 40 28 0.0 0.0 0.06 0.15 0.15 91 1016.5
20260507072804 40 28 0.0 0.0 0.06 0.15 0.15 91 1016.5
20260507072306 41 28 0.0 0.0 0.05 0.14 0.14 91 1016.5
20260507071804 40 28 0.0 0.9 0.06 0.14 0.14 91 1016.5
20260507071304 40 41 0.9 0.9 0.05 0.13 0.13 91 1016.4
20260507070804 40 169 0.0 0.0 0.06 0.13 0.13 91 1016.4
20260507070304 41 169 0.0 1.7 0.06 0.13 0.13 91 1016.4
20260507065804 40 240 0.0 0.0 0.05 0.12 0.12 91 1016.3
20260507065306 41 240 0.0 1.7 0.04 0.11 0.11 91 1016.3
20260507064804 41 241 1.7 2.6 0.04 0.11 0.11 91 1016.3
20260507064304 41 244 0.0 1.7 0.03 0.10 0.10 90 1016.2
20260507063804 41 224 1.7 4.3 0.04 0.10 0.10 90 1016.1
20260507063304 41 206 2.6 4.3 0.03 0.09 0.09 90 1016.1
20260507062803 41 211 2.6 5.2 0.03 0.09 0.09 90 1016.0
20260507062306 41 208 1.7 6.1 0.03 0.09 0.09 90 1016.0
20260507061804 41 197 2.6 5.2 0.02 0.08 0.08 90 1015.9
20260507061304 41 201 2.6 5.2 0.02 0.08 0.08 90 1015.9
20260507060803 41 195 1.7 2.6 0.01 0.07 0.07 90 1015.8
20260507060304 41 192 1.7 4.3 0.01 0.07 0.07 90 1015.8
20260507055804 41 181 2.6 4.3 0.01 0.07 0.07 90 1015.7
20260507055306 41 154 2.6 4.3 0.01 0.07 0.07 90 1015.7
20260507054804 41 159 1.7 2.6 0.01 0.07 0.07 90 1015.6
20260507054304 41 235 1.7 4.3 0.02 0.07 0.07 89 1015.6
20260507053804 41 235 2.6 5.2 0.02 0.06 0.06 89 1015.4
20260507053304 41 223 2.6 5.2 0.03 0.06 0.06 89 1015.4
20260507052804 41 254 1.7 2.6 0.04 0.06 0.06 89 1015.4
20260507052306 41 185 0.0 2.6 0.04 0.06 0.06 89 1015.4
20260507051804 41 245 0.9 2.6 0.05 0.06 0.06 90 1015.5
20260507051304 41 221 1.7 2.6 0.05 0.06 0.06 88 1015.4
20260507050804 41 160 1.7 2.6 0.05 0.06 0.06 88 1015.3
20260507050304 41 131 0.9 1.7 0.05 0.06 0.06 88 1015.3
20260507045804 41 138 2.6 4.3 0.06 0.06 0.06 88 1015.3
20260507045306 41 184 2.6 7.0 0.06 0.06 0.06 88 1015.4
20260507044804 41 182 5.2 8.7 0.06 0.06 0.06 88 1015.5
20260507044304 41 204 6.1 10.4 0.05 0.05 0.05 88 1015.5
20260507043804 41 194 7.8 12.2 0.04 0.04 0.04 88 1015.5
20260507043304 41 215 7.8 13.9 0.03 0.03 0.03 87 1015.4
20260507042804 42 202 8.7 13.0 0.02 0.02 0.02 86 1015.4
20260507042306 42 216 8.7 14.8 0.02 0.02 0.02 85 1015.4
20260507041804 42 215 6.1 10.4 0.01 0.01 0.01 84 1015.4
20260507041304 43 230 7.8 11.3 0.01 0.01 0.01 83 1015.3
20260507040804 43 239 6.1 10.4 0.01 0.01 0.01 82 1015.3
20260507040304 44 243 6.1 12.2 0.01 0.01 0.01 82 1015.2
20260507035804 44 222 7.0 12.2 0.00 0.00 0.00 80 1015.1
20260507035306 45 234 6.1 11.3 0.00 0.00 0.00 79 1015.1
20260507034804 45 246 6.1 8.7 0.00 0.00 0.00 79 1015.0
20260507034304 45 225 2.6 4.3 0.00 0.00 0.00 78 1014.9
20260507033804 45 254 0.9 0.9 0.00 0.00 0.00 77 1014.7
20260507033304 45 224 0.0 0.0 0.00 0.00 0.00 76 1014.6
20260507032804 45 229 0.0 0.9 0.00 0.00 0.00 76 1014.6
20260507032306 46 234 1.7 6.1 0.00 0.00 0.00 76 1014.5
20260507031804 46 222 2.6 4.3 0.00 0.00 0.00 76 1014.5
20260507031305 46 218 1.7 5.2 0.00 0.00 0.00 76 1014.4
20260507030804 46 209 4.3 6.1 0.00 0.00 0.00 76 1014.3
20260507030304 46 208 2.6 5.2 0.00 0.00 0.00 75 1014.3
20260507025804 46 208 1.7 4.3 0.00 0.00 0.00 75 1014.3
20260507025306 46 186 0.9 1.7 0.00 0.00 0.00 74 1014.3
20260507024805 46 249 1.7 1.7 0.00 0.00 0.00 74 1014.3
20260507024304 47 236 0.9 2.6 0.00 0.00 0.00 74 1014.2
20260507023804 46 249 0.9 1.7 0.00 0.00 0.00 74 1014.2
20260507023304 46 206 0.0 1.7 0.00 0.00 0.00 75 1014.2
20260507022804 46 232 0.9 1.7 0.00 0.00 0.00 76 1014.2
20260507022306 46 267 1.7 2.6 0.00 0.00 0.00 76 1014.2
20260507021804 46 239 0.0 2.6 0.00 0.00 0.00 76 1014.1
20260507021304 46 238 0.9 2.6 0.00 0.00 0.00 76 1014.0
20260507020804 46 285 0.9 2.6 0.00 0.00 0.00 75 1014.0
20260507020304 46 299 1.7 4.3 0.00 0.00 0.00 75 1014.0
20260507015804 46 214 1.7 2.6 0.00 0.00 0.00 74 1014.1
20260507015306 46 280 1.7 4.3 0.00 0.00 0.00 74 1014.1
20260507014804 47 259 1.7 2.6 0.00 0.00 0.00 74 1014.1
20260507014305 47 208 4.3 6.1 0.00 0.00 0.00 74 1014.1
20260507013805 47 235 1.7 4.3 0.00 0.00 0.00 74 1014.1
20260507013304 47 279 2.6 4.3 0.00 0.00 0.00 74 1014.1
20260507012804 47 286 1.7 4.3 0.00 0.00 0.00 73 1014.0
20260507012306 47 213 1.7 5.2 0.00 0.00 0.00 72 1014.1
20260507011805 47 257 2.6 6.1 0.00 0.00 0.00 72 1014.0
20260507011304 47 244 3.5 8.7 0.00 0.00 0.00 72 1014.1
20260507010804 47 238 5.2 8.7 0.00 0.00 0.00 71 1014.1
20260507010304 47 238 5.2 11.3 0.00 0.00 0.00 71 1014.1
20260507005805 48 259 4.3 7.8 0.00 0.00 0.00 71 1014.0
20260507005305 48 269 2.6 7.8 0.00 0.00 0.00 71 1014.0
20260507004804 47 246 2.6 7.8 0.00 0.00 0.00 72 1013.9
20260507004304 47 277 2.6 6.1 0.00 0.00 0.00 73 1013.9
20260507003804 47 278 2.6 5.2 0.00 0.00 0.00 74 1013.9
20260507003304 47 280 2.6 5.2 0.00 0.00 0.00 74 1013.9
20260507002804 47 284 2.6 6.1 0.00 0.00 0.00 74 1013.8
20260507002306 47 287 2.6 6.1 0.00 0.00 0.00 74 1013.8
20260507001804 47 304 2.6 7.0 0.00 0.00 0.00 73 1013.8
20260507001304 47 308 1.7 5.2 0.00 0.00 0.00 73 1013.7
20260507000805 47 318 1.7 5.2 0.00 0.00 0.00 72 1013.8
20260507000306 47 298 1.7 6.1 0.00 0.00 0.00 71 1013.7
20260506235804 48 293 4.3 7.8 0.00 0.00 0.00 71 1013.7
20260506235306 48 310 2.6 5.2 0.00 0.00 0.00 70 1013.6
20260506234804 48 335 1.7 5.2 0.00 0.00 0.00 69 1013.6
20260506234304 48 270 1.7 6.1 0.00 0.00 0.00 68 1013.6
20260506233804 48 278 3.5 6.1 0.00 0.00 0.00 70 1013.6
20260506233304 48 315 1.7 6.1 0.00 0.00 0.00 70 1013.5
20260506232805 48 296 3.5 7.0 0.00 0.00 0.00 70 1013.5
20260506232306 48 298 4.3 7.8 0.00 0.00 0.00 69 1013.5
20260506231804 48 314 3.5 6.1 0.00 0.00 0.00 67 1013.5
20260506231304 48 298 3.5 8.7 0.00 0.00 0.00 66 1013.5
20260506230805 48 247 5.2 7.8 0.00 0.00 0.00 65 1013.5
20260506230305 48 247 2.6 8.7 0.00 0.00 0.00 66 1013.5
20260506225804 48 290 5.2 7.8 0.00 0.00 0.00 65 1013.4
20260506225306 48 258 3.5 10.4 0.00 0.00 0.00 65 1013.5
20260506224804 48 250 4.3 8.7 0.00 0.00 0.00 66 1013.4
20260506224304 48 274 3.5 7.8 0.00 0.00 0.00 66 1013.4
20260506223805 48 252 3.5 11.3 0.00 0.00 0.00 66 1013.3
20260506223304 48 227 6.1 12.2 0.00 0.00 0.00 65 1013.3
20260506222804 48 235 5.2 11.3 0.00 0.00 0.00 65 1013.2
20260506222306 48 249 7.8 13.0 0.00 0.00 0.00 64 1013.2
20260506221804 48 260 5.2 11.3 0.00 0.00 0.00 63 1013.1
20260506221304 48 251 5.2 7.8 0.00 0.00 0.00 62 1013.1
20260506220804 49 239 5.2 10.4 0.00 0.00 0.00 64 1013.0
20260506220305 49 221 2.6 7.8 0.00 0.00 0.00 67 1013.0
20260506215804 48 229 1.7 2.6 0.00 0.00 0.00 67 1013.0
20260506215306 48 243 1.7 2.6 0.00 0.00 0.00 68 1012.9
20260506214804 48 290 1.7 4.3 0.00 0.00 0.00 68 1012.9
20260506214304 48 279 1.7 2.6 0.00 0.00 0.00 68 1012.9
20260506213804 48 267 1.7 4.3 0.00 0.00 0.00 68 1012.8
20260506213304 48 285 2.6 6.1 0.00 0.00 0.00 67 1012.8
20260506212805 48 327 4.3 7.8 0.00 0.00 0.00 67 1012.8
20260506212306 49 336 3.5 6.1 0.00 0.00 0.00 68 1012.8
20260506211805 49 13 3.5 7.0 0.00 0.00 0.00 68 1012.7
20260506211304 48 352 3.5 7.0 0.00 0.00 0.00 68 1012.7
20260506210804 48 338 2.6 7.0 0.00 0.00 0.00 68 1012.6
20260506210304 48 299 2.6 7.0 0.00 0.00 0.00 68 1012.6
20260506205804 48 359 1.7 6.1 0.00 0.00 0.00 68 1012.6
20260506205306 48 306 2.6 6.1 0.00 0.00 0.00 68 1012.6
20260506204804 48 326 2.6 6.1 0.00 0.00 0.00 68 1012.6
20260506204304 49 5 4.3 7.0 0.00 0.00 0.00 69 1012.5
20260506203804 48 329 1.7 6.1 0.00 0.00 0.00 69 1012.5
20260506203304 48 329 2.6 6.1 0.00 0.00 0.00 69 1012.5
20260506202804 47 260 1.7 5.2 0.00 0.00 0.00 70 1012.4
20260506202306 47 334 4.3 6.1 0.00 0.00 0.00 71 1012.4
20260506201805 47 278 1.7 5.2 0.00 0.00 0.00 71 1012.4
20260506201304 47 314 2.6 6.1 0.00 0.00 0.00 71 1012.3
20260506200804 47 296 1.7 4.3 0.00 0.00 0.00 72 1012.3
20260506200304 46 295 2.6 5.2 0.00 0.00 0.00 72 1012.3
20260506195804 46 323 2.6 5.2 0.00 0.00 0.00 72 1012.2
20260506195306 46 277 1.7 6.1 0.00 0.00 0.00 72 1012.2
20260506194804 46 292 2.6 6.1 0.00 0.00 0.00 72 1012.2
20260506194304 46 294 1.7 6.1 0.00 0.00 0.00 72 1012.2
20260506193804 46 310 2.6 6.1 0.00 0.00 0.00 72 1012.2
20260506193304 46 6 2.6 6.1 0.00 0.00 0.00 72 1012.1
20260506192804 46 306 5.2 7.8 0.00 0.00 0.00 72 1012.1
20260506192306 46 289 1.7 6.1 0.00 0.00 0.00 72 1012.1
20260506191804 46 322 2.6 5.2 0.00 0.00 0.00 71 1012.1
20260506191304 46 309 2.6 5.2 0.00 0.00 0.00 71 1012.1
20260506190804 46 298 1.7 4.3 0.00 0.00 0.00 71 1012.0
20260506190305 46 255 1.7 4.3 0.00 0.00 0.00 70 1012.0
20260506185804 46 282 0.9 1.7 0.00 0.00 0.00 72 1012.0
20260506185306 46 300 0.9 1.7 0.00 0.00 0.00 72 1012.0
20260506184804 46 294 0.9 4.3 0.00 0.00 0.00 73 1012.0
20260506184305 46 315 0.0 2.6 0.00 0.00 0.00 74 1012.0
20260506183804 45 2 0.9 1.7 0.00 0.00 0.00 74 1011.9
20260506183304 45 340 0.9 1.7 0.00 0.00 0.00 74 1011.9
20260506182804 45 200 0.0 0.0 0.00 0.00 0.00 75 1011.9
20260506182306 45 200 0.0 1.7 0.00 0.00 0.00 75 1012.0
20260506181804 45 217 0.9 1.7 0.00 0.00 0.00 75 1011.9
20260506181304 45 193 1.7 2.6 0.00 0.00 0.00 76 1011.9
20260506180804 44 72 0.0 0.0 0.00 0.00 0.00 76 1011.8
20260506180304 44 72 0.0 1.7 0.00 0.00 0.00 76 1011.6
20260506175804 44 96 0.9 1.7 0.00 0.00 0.00 76 1011.8
20260506175306 44 178 1.7 2.6 0.00 0.00 0.00 77 1011.8
20260506174804 44 165 0.9 1.7 0.00 0.00 0.00 77 1011.7
20260506174305 43 192 0.9 1.7 0.00 0.00 0.00 77 1011.5
20260506173804 43 212 0.9 1.7 0.00 0.00 0.00 77 1011.7
20260506173305 43 231 1.7 1.7 0.00 0.00 0.00 77 1011.7
20260506172805 43 203 0.0 1.7 0.00 0.00 0.00 78 1011.7
20260506172307 43 229 1.7 1.7 0.00 0.00 0.00 78 1011.6
20260506171804 43 199 0.0 0.0 0.00 0.00 0.00 78 1011.6
20260506171304 42 199 0.0 1.7 0.00 0.00 0.00 78 1011.6
20260506170804 42 241 0.0 0.9 0.00 0.00 0.00 78 1011.5
20260506170304 42 241 0.0 0.9 0.00 0.00 0.00 79 1011.5
20260506165804 42 220 0.0 0.0 0.00 0.00 0.00 79 1011.5
20260506165306 42 220 0.0 0.0 0.00 0.00 0.00 79 1011.4
20260506164805 42 220 0.0 1.7 0.00 0.00 0.00 79 1011.4
20260506164304 42 196 1.7 1.7 0.00 0.00 0.00 79 1011.3
20260506163805 42 194 0.9 1.7 0.00 0.00 0.00 79 1011.3
20260506163304 42 197 1.7 1.7 0.00 0.00 0.00 79 1011.2
20260506162804 42 148 0.0 0.9 0.00 0.00 0.00 80 1011.2
20260506162307 41 146 0.9 1.7 0.00 0.00 0.00 80 1011.2
20260506161805 41 209 0.0 0.0 0.00 0.00 0.00 80 1011.1
20260506161304 41 209 0.0 0.0 0.00 0.00 0.00 80 1011.1
20260506160804 41 209 0.0 0.0 0.00 0.00 0.00 80 1011.2
20260506160304 41 209 0.0 1.7 0.00 0.00 0.00 80 1011.1
20260506155804 41 211 1.7 4.3 0.00 0.00 0.00 80 1011.1
20260506155306 41 16 0.9 4.3 0.00 0.00 0.00 80 1011.1
20260506154804 41 345 0.0 5.2 0.00 0.00 0.00 80 1011.0
20260506154304 41 29 2.6 6.1 0.00 0.00 0.00 80 1010.9
20260506153804 41 42 2.6 7.0 0.00 0.00 0.00 80 1010.9
20260506153304 41 18 2.6 8.7 0.00 0.00 0.00 80 1010.9
20260506152804 40 21 4.3 8.7 0.00 0.00 0.00 81 1010.9
20260506152306 40 20 4.3 7.0 0.00 0.00 0.00 81 1010.9
20260506151804 40 7 2.6 5.2 0.00 0.00 0.00 81 1010.8
20260506151304 40 17 2.6 6.1 0.00 0.00 0.00 81 1010.8
20260506150804 39 24 2.6 6.1 0.00 0.00 0.00 82 1010.8
20260506150305 39 357 1.7 4.3 0.00 0.00 0.00 82 1010.8
20260506145804 38 15 1.7 2.6 0.00 0.00 0.00 82 1010.8
20260506145306 38 16 0.9 2.6 0.00 0.00 0.00 82 1010.8
20260506144804 38 36 0.0 4.3 0.00 0.00 0.00 82 1010.7
20260506144304 38 15 0.9 1.7 0.00 0.00 0.00 82 1010.8
20260506143805 38 28 0.0 1.7 0.00 0.00 0.00 82 1010.7
20260506143304 38 17 0.9 2.6 0.00 0.00 0.00 82 1010.7
20260506142804 38 27 0.9 2.6 0.00 0.00 0.00 82 1010.7
20260506142306 37 9 1.7 4.3 0.00 0.00 0.00 82 1010.7
20260506141804 37 3 0.9 4.3 0.00 0.00 0.00 82 1010.7
20260506141305 37 26 1.7 4.3 0.00 0.00 0.00 83 1010.7
20260506140804 37 24 1.7 4.3 0.00 0.00 0.00 83 1010.7
20260506140304 36 350 2.6 4.3 0.00 0.00 0.00 82 1010.7
20260506135804 37 349 1.7 2.6 0.00 0.00 0.00 82 1010.7
20260506135306 36 11 1.7 1.7 0.00 0.00 0.00 82 1010.8
20260506134805 37 11 0.9 2.6 0.00 0.00 0.00 82 1010.7
20260506134304 37 0 0.9 2.6 0.00 0.00 0.00 82 1010.8
20260506133804 37 25 0.0 0.0 0.00 0.00 0.00 82 1010.7
20260506133304 37 25 0.0 0.0 0.00 0.00 0.00 82 1010.7
20260506132804 37 25 0.0 0.0 0.00 0.00 0.00 82 1010.7
20260506132307 37 25 0.0 0.0 0.00 0.00 0.00 82 1010.7
20260506131804 37 25 0.0 0.0 0.00 0.00 0.00 81 1010.6
20260506131304 37 14 0.9 1.7 0.00 0.00 0.00 81 1010.6
20260506130804 37 150 0.0 0.9 0.00 0.00 0.00 81 1010.6
20260506130304 37 158 0.0 0.0 0.00 0.00 0.00 81 1010.6
20260506125804 37 158 0.0 0.0 0.00 0.00 0.00 81 1010.5
20260506125306 37 158 0.0 0.9 0.00 0.00 0.00 81 1010.5
20260506124804 37 31 0.0 0.0 0.00 0.00 0.00 81 1010.5
20260506124304 37 31 0.0 0.0 0.00 0.00 0.00 80 1010.5
20260506123804 37 42 0.9 1.7 0.00 0.00 0.00 80 1010.5
20260506123304 37 116 0.0 1.7 0.00 0.00 0.00 80 1010.4
20260506122804 37 114 0.0 1.7 0.00 0.00 0.00 80 1010.4
20260506122306 37 121 1.7 2.6 0.00 0.00 0.00 80 1010.3
20260506121804 37 320 0.0 0.0 0.00 0.00 0.00 80 1010.3
20260506121304 37 320 0.0 0.0 0.00 0.00 0.00 79 1010.3
20260506120804 37 320 0.0 0.0 0.00 0.00 0.00 79 1010.3
20260506120304 38 320 0.0 0.0 0.00 0.00 0.00 79 1010.2
20260506115804 38 320 0.0 0.0 0.00 0.00 0.00 79 1010.2
20260506115307 38 320 0.0 0.0 0.00 0.00 0.00 78 1010.2
20260506114804 38 320 0.0 0.0 0.00 0.00 0.00 78 1010.2